Location: *
(49.9853°N, 3.5569°E)
Time: 17:10:11
(UTC+00:00)

Nadezhda 3 Rocket - Pass Details

Date: 22 September 2019
Orbit: 958 x 999 km, 82.9° (Epoch: 15 October)

Event Time Altitude Azimuth Distance (km) Brightness Sun altitude
Exits shadow 20:30:15 54° 171° (S) 1,162 4.1 -25.8°
Maximum altitude 20:31:45 79° 97° (E) 989 3.8 -26.0°
Drops below altitude 10° 20:38:00 10° 12° (NNE) 2,730 6.6 -26.8°
Sets 20:40:32 0° 11° (N) 3,688 7.4 -27.2°
